| time (UTC) | temp F | wind direction | speed knots | gust knots | rain 1hr in | rain 24hr in | rain mn in | humidity % | barometer mb |
| 20260905024530 | 56 | 336 | 0.0 | 2.6 | 0.00 | 0.03 | 0.03 | 81 | 1018.3 |
| 20260905023107 | 57 | 318 | 1.7 | 4.3 | 0.00 | 0.03 | 0.03 | 79 | 1018.5 |
| 20260905021531 | 58 | 339 | 2.6 | 5.2 | 0.00 | 0.03 | 0.03 | 77 | 1018.3 |
| 20260905020032 | 59 | 326 | 2.6 | 6.1 | 0.00 | 0.03 | 0.03 | 74 | 1018.0 |
| 20260905014532 | 60 | 292 | 0.9 | 3.5 | 0.00 | 0.03 | 0.03 | 72 | 1017.8 |
| 20260905013109 | 60 | 270 | 0.0 | 0.0 | 0.00 | 0.03 | 0.03 | 73 | 1017.8 |
| 20260905011605 | 61 | 270 | 0.0 | 0.9 | 0.00 | 0.03 | 0.03 | 73 | 1017.8 |
| 20260905010030 | 61 | 289 | 0.0 | 0.0 | 0.00 | 0.03 | 0.03 | 72 | 1017.8 |
| 20260905003103 | 61 | 247 | 0.0 | 2.6 | 0.00 | 0.03 | 0.03 | 73 | 1017.5 |
| 20260905001605 | 60 | 278 | 0.9 | 3.5 | 0.00 | 0.03 | 0.03 | 73 | 1017.5 |
| 20260905000029 | 60 | 303 | 1.7 | 4.3 | 0.00 | 0.03 | 0.03 | 72 | 1017.5 |
| 20260904234527 | 60 | 316 | 1.7 | 3.5 | 0.00 | 0.03 | 0.03 | 73 | 1017.4 |
| 20260904233029 | 60 | 322 | 2.6 | 5.2 | 0.00 | 0.03 | 0.03 | 73 | 1017.3 |
| 20260904231528 | 61 | 14 | 1.7 | 4.3 | 0.00 | 0.03 | 0.03 | 71 | 1017.3 |
| 20260904230030 | 62 | 21 | 2.6 | 5.2 | 0.00 | 0.03 | 0.03 | 70 | 1017.3 |
| 20260904224541 | 61 | 50 | 0.9 | 3.5 | 0.00 | 0.03 | 0.03 | 72 | 1017.3 |
| 20260904221534 | 59 | 143 | 0.0 | 3.5 | 0.00 | 0.03 | 0.03 | 77 | 1017.3 |
| 20260904220031 | 60 | 181 | 1.7 | 4.3 | 0.00 | 0.03 | 0.03 | 75 | 1017.3 |
| 20260904214529 | 61 | 180 | 0.9 | 4.3 | 0.00 | 0.03 | 0.03 | 74 | 1017.2 |
| 20260904210028 | 61 | 148 | 0.9 | 2.6 | 0.00 | 0.03 | 0.03 | 76 | 1016.8 |
| 20260904204531 | 59 | 120 | 0.0 | 2.6 | 0.00 | 0.03 | 0.03 | 77 | 1016.8 |
| 20260904203029 | 59 | 161 | 1.7 | 3.5 | 0.00 | 0.03 | 0.03 | 77 | 1016.9 |
| 20260904201533 | 60 | 116 | 0.0 | 1.7 | 0.00 | 0.03 | 0.03 | 75 | 1017.0 |
| 20260904200031 | 60 | 91 | 0.9 | 2.6 | 0.00 | 0.03 | 0.03 | 74 | 1017.0 |
| 20260904194541 | 58 | 90 | 0.0 | 2.6 | 0.00 | 0.03 | 0.03 | 75 | 1017.1 |
| 20260904193033 | 57 | 17 | 0.0 | 1.7 | 0.00 | 0.03 | 0.03 | 75 | 1017.2 |
| 20260904191531 | 57 | 328 | 0.0 | 2.6 | 0.00 | 0.03 | 0.03 | 76 | 1017.2 |
| 20260904190031 | 58 | 5 | 0.0 | 2.6 | 0.00 | 0.03 | 0.03 | 77 | 1017.3 |
| 20260904184529 | 57 | 187 | 0.0 | 3.5 | 0.00 | 0.03 | 0.03 | 80 | 1017.3 |
| 20260904183034 | 56 | 212 | 0.0 | 2.6 | 0.00 | 0.03 | 0.03 | 81 | 1017.3 |
| 20260904181532 | 56 | 229 | 0.9 | 2.6 | 0.00 | 0.03 | 0.03 | 82 | 1017.2 |
| 20260904180029 | 56 | 311 | 0.0 | 2.6 | 0.00 | 0.03 | 0.03 | 87 | 1017.1 |
| 20260904174530 | 53 | 336 | 0.9 | 3.5 | 0.00 | 0.03 | 0.03 | 91 | 1017.0 |
| 20260904173031 | 52 | 67 | 0.0 | 0.9 | 0.00 | 0.03 | 0.03 | 92 | 1016.9 |
| 20260904171530 | 52 | 67 | 0.0 | 1.7 | 0.00 | 0.03 | 0.03 | 93 | 1017.0 |
| 20260904170034 | 52 | 53 | 0.9 | 2.6 | 0.00 | 0.03 | 0.03 | 94 | 1016.9 |
| 20260904164646 | 52 | 19 | 0.9 | 3.5 | 0.00 | 0.03 | 0.03 | 95 | 1016.9 |
| 20260904163032 | 52 | 18 | 1.7 | 4.3 | 0.00 | 0.03 | 0.03 | 96 | 1016.9 |
| 20260904160032 | 51 | 337 | 0.9 | 2.6 | 0.00 | 0.03 | 0.03 | 98 | 1016.7 |
| 20260904154609 | 50 | 337 | 0.0 | 0.9 | 0.00 | 0.03 | 0.03 | 98 | 1016.6 |
| 20260904153030 | 50 | 7 | 0.0 | 1.7 | 0.00 | 0.03 | 0.03 | 98 | 1016.5 |
| 20260904151532 | 49 | 180 | 0.0 | 0.0 | 0.00 | 0.03 | 0.03 | 98 | 1016.2 |
| 20260904150030 | 49 | 180 | 0.0 | 0.0 | 0.00 | 0.03 | 0.03 | 98 | 1016.1 |
| 20260904144530 | 49 | 180 | 0.0 | 0.0 | 0.00 | 0.03 | 0.03 | 98 | 1016.0 |
| 20260904140104 | 47 | 180 | 0.0 | 0.9 | 0.00 | 0.03 | 0.03 | 98 | 1015.5 |
| 20260904134530 | 47 | 163 | 0.0 | 0.9 | 0.01 | 0.03 | 0.03 | 98 | 1015.4 |
| 20260904133031 | 47 | 157 | 0.0 | 0.9 | 0.01 | 0.03 | 0.03 | 98 | 1015.3 |
| 20260904131606 | 48 | 157 | 0.0 | 0.0 | 0.02 | 0.03 | 0.03 | 98 | 1015.2 |
| 20260904124530 | 48 | 157 | 0.0 | 0.9 | 0.01 | 0.02 | 0.02 | 98 | 1015.1 |
| 20260904123029 | 48 | 157 | 0.0 | 0.0 | 0.01 | 0.02 | 0.01 | 98 | 1015.0 |
| 20260904121531 | 48 | 157 | 0.0 | 0.9 | 0.00 | 0.01 | 0.01 | 97 | 1015.0 |
| 20260904120108 | 48 | 157 | 0.0 | 1.7 | 0.00 | 0.01 | 0.01 | 97 | 1014.9 |
| 20260904114606 | 48 | 159 | 0.9 | 2.6 | 0.00 | 0.01 | 0.01 | 97 | 1014.8 |
| 20260904111528 | 48 | 178 | 0.0 | 0.0 | 0.00 | 0.01 | 0.01 | 97 | 1014.5 |
| 20260904110029 | 48 | 163 | 0.0 | 1.7 | 0.00 | 0.02 | 0.01 | 97 | 1014.4 |
| 20260904104606 | 48 | 156 | 0.0 | 2.6 | 0.00 | 0.02 | 0.01 | 97 | 1014.2 |
| 20260904103031 | 48 | 149 | 0.0 | 3.5 | 0.00 | 0.02 | 0.01 | 97 | 1014.1 |
| 20260904101530 | 48 | 180 | 0.0 | 0.0 | 0.00 | 0.02 | 0.01 | 97 | 1014.1 |
| 20260904100029 | 48 | 180 | 0.0 | 0.9 | 0.00 | 0.02 | 0.01 | 97 | 1013.9 |
| 20260904093028 | 48 | 174 | 0.9 | 1.7 | 0.00 | 0.02 | 0.01 | 97 | 1013.8 |
| 20260904091530 | 48 | 179 | 0.0 | 1.7 | 0.00 | 0.02 | 0.01 | 97 | 1013.9 |
| 20260904090030 | 48 | 147 | 0.9 | 2.6 | 0.00 | 0.02 | 0.01 | 97 | 1013.8 |
| 20260904084532 | 48 | 163 | 1.7 | 3.5 | 0.00 | 0.02 | 0.01 | 97 | 1013.7 |
| 20260904083030 | 48 | 171 | 1.7 | 3.5 | 0.00 | 0.02 | 0.01 | 96 | 1013.7 |
| 20260904081605 | 48 | 161 | 0.0 | 3.5 | 0.00 | 0.02 | 0.01 | 96 | 1013.7 |
| 20260904080033 | 48 | 163 | 0.9 | 2.6 | 0.01 | 0.02 | 0.01 | 96 | 1013.8 |
| 20260904071531 | 48 | 177 | 0.0 | 3.5 | 0.01 | 0.02 | 0.00 | 96 | 1013.8 |
| 20260904070029 | 48 | 217 | 0.9 | 2.6 | 0.00 | 0.01 | 0.00 | 96 | 1013.7 |
| 20260904064526 | 48 | 200 | 0.9 | 2.6 | 0.00 | 0.01 | 0.01 | 95 | 1013.7 |
| 20260904063031 | 48 | 121 | 0.9 | 3.5 | 0.00 | 0.01 | 0.01 | 95 | 1013.6 |
| 20260904061531 | 48 | 155 | 0.0 | 1.7 | 0.00 | 0.01 | 0.01 | 95 | 1013.6 |
| 20260904054532 | 49 | 157 | 0.0 | 1.7 | 0.00 | 0.01 | 0.01 | 95 | 1013.6 |
| 20260904053032 | 49 | 132 | 0.9 | 2.6 | 0.00 | 0.01 | 0.01 | 95 | 1013.6 |
| 20260904051531 | 50 | 189 | 0.0 | 0.9 | 0.00 | 0.01 | 0.01 | 94 | 1013.7 |
| 20260904050030 | 50 | 252 | 0.0 | 1.7 | 0.00 | 0.01 | 0.01 | 94 | 1013.6 |
| 20260904044530 | 50 | 185 | 0.0 | 2.6 | 0.00 | 0.01 | 0.01 | 94 | 1013.7 |
| 20260904043031 | 51 | 202 | 0.0 | 0.9 | 0.00 | 0.01 | 0.01 | 93 | 1013.8 |
| 20260904041531 | 51 | 155 | 0.9 | 3.5 | 0.00 | 0.01 | 0.01 | 93 | 1014.0 |
| 20260904040030 | 51 | 210 | 0.9 | 3.5 | 0.00 | 0.01 | 0.01 | 92 | 1013.8 |
| 20260904033032 | 51 | 172 | 0.0 | 2.6 | 0.00 | 0.01 | 0.01 | 91 | 1013.5 |
| 20260904031528 | 51 | 184 | 1.7 | 4.3 | 0.00 | 0.02 | 0.01 | 90 | 1013.4 |